User: anonymous   Login
Location: Unspecified
(0.0000°N, 0.0000°E)
Time: 03:24:24
(UTC+02:00)
Language:

Meteor 1-10 Rocket - Orbit

View from above orbital plane
View from above orbital plane
View from above satellite
View from above satellite

Ground track
Ground track

The orbit data is extracted from the following two-line orbital elements,

1 05732U 71120B   16122.66972184 -.00000040  00000-0 -32241-4 0  9995
2 05732  81.2507 160.6538 0052910 119.6153 241.0302 14.05917356281110
Epoch (UTC): 01 May 2016 16:04:23
Eccentricity: 0.0052910
inclination: 81.2507°
perigee height: 835 km
apogee height: 912 km
right ascension of ascending node: 160.6538°
argument of perigee: 119.6153°
revolutions per day: 14.05917356
mean anomaly at epoch: 241.0302°
orbit number at epoch: 28111

The dashed part of the orbit path shows where the satellite is in the earth's shadow,  

DLR